Miscellaneous Local Product
Issued by NWS Hastings, NE

Home | Current Version | Previous Version | Graphics & Text | Print | Product List | Glossary On
Versions: 1 2 3 4 5 6 7 8 9 10 11 12 13 14 15 16 17 18 19 20 21 22 23 24 25 26 27 28 29 30 31 32 33 34 35 36 37 38 39 40 41 42 43 44 45 46 47 48 49 50
000
AXUS43 KGID 011002
MISGRI

GID CWA HOURLY WEATHER ROUNDUP
NATIONAL WEATHER SERVICE HASTINGS NE
400 AM CST SUN MAR 01 2015

NOTE: "FAIR" INDICATES FEW OR NO CLOUDS BELOW 12,000 FEET WITH NO
SIGNIFICANT WEATHER AND/OR OBSTRUCTIONS TO VISIBILITY.

...SOUTH CENTRAL NEBRASKA...

CITY           SKY/WX    TMP DP  RH WIND       PRES   REMARKS
GRAND ISLAND   CLOUDY    17  13  84 SW6       30.29R WCI   9
HASTINGS       MOCLDY    15  12  88 SW5       30.27S WCI   8
KEARNEY        CLOUDY    18  12  79 SW6       30.26S WCI   9
ORD            PTCLDY    16  11  80 CALM      30.23F
YORK           PTCLDY    14  10  85 SW7       30.29R WCI   4
AURORA         MOCLDY    16  14  92 SW6       30.28S FOG     WCI   7
LEXINGTON      CLOUDY    17  14  86 CALM      30.24S
HOLDREGE       CLOUDY    17  15  89 S3        30.24F
HEBRON         CLOUDY    20  16  84 CALM      30.31S

...NEBRASKA PANHANDLE...

CITY           SKY/WX    TMP DP  RH WIND       PRES   REMARKS
CHADRON        CLOUDY    18  11  74 NE3       30.21S
ALLIANCE       CLOUDY    18   9  68 N7        30.14R WCI   9
SCOTTSBLUFF    CLOUDY    20  10  65 NE8       30.15R WCI  10
SIDNEY         PTCLDY    18  14  84 CALM      30.12R

...WESTERN AND NORTH CENTRAL NEBRASKA...

CITY           SKY/WX    TMP DP  RH WIND       PRES   REMARKS
VALENTINE      CLOUDY    17   8  67 W5        30.24R WCI  10
AINSWORTH      CLOUDY    15   8  71 CALM      30.23R
ONEILL         PTCLDY    15  10  80 N5        30.24S WCI   7
BROKEN BOW     PTCLDY    19  13  77 W5        30.21F WCI  12
IMPERIAL         N/A     19  12  74 CALM      30.18R
NORTH PLATTE   CLOUDY    19  13  77 CALM      30.21S
MCCOOK         PTCLDY    21  15  78 S3        30.21F

...EASTERN NEBRASKA...

CITY           SKY/WX    TMP DP  RH WIND       PRES   REMARKS
NORFOLK        PTCLDY    15  12  88 W7        30.27R WCI   5
SO SIOUX CITY  PTCLDY    16  11  80 SW5       30.30S WCI   9
TEKAMAH        MOCLDY    17  13  84 S8        30.32F WCI   7
COLUMBUS       PTCLDY    18   7  62 SW6       30.30S WCI   9
ALBION         MOCLDY    16  11  80 W6        30.27R WCI   7
OMAHA EPPLEY   MOCLDY    22  14  71 SW5       30.34S WCI  16
OFFUTT AFB     CLOUDY    22  15  74 W3        30.33S
MILLARD        MOCLDY    22  15  74 CALM      30.33S
LINCOLN        CLOUDY    20  14  77 SW3       30.33F
NEBRASKA CITY  CLOUDY    21  17  87 CALM      30.32F
BEATRICE       CLOUDY    20  17  90 SW3       30.32S
FALLS CITY     CLOUDY    20  17  88 CALM      30.35S

...NORTHERN KANSAS...

CITY           SKY/WX    TMP DP  RH WIND       PRES   REMARKS
GOODLAND       CLOUDY    19  17  92 S3        30.14S
HILL CITY      CLOUDY    19  15  84 CALM      30.26S
NORTON         PTSUNNY   16  12  86 S3        30.22
PHILLIPSBURG   MOCLDY    21  19  93 CALM      30.28F
SMITH CENTER   CLOUDY    18  16  93 CALM      30.30S
BELOIT         CLOUDY    21  18  86 CALM      30.31R
HAYS           CLOUDY    16   7  67 CALM      30.27S
RUSSELL        MOCLDY    17  16  95 S3        30.27R
CONCORDIA      CLOUDY    20  17  88 CALM      30.30S
SALINA         MOCLDY    17  14  88 S3        30.32F
TOPEKA         CLOUDY    22  18  85 CALM      30.35F



USA.gov is the U.S. government's official web portal to all federal, state and local government web resources and services.